Location: Hilton Head Island
(32.2163°N, 80.7526°W)
Time: 22:35:24
(UTC-04:00)

Tiros 1 despin weight - Pass Details

Date: 16 February 2026
Orbit: 556 x 593 km, 48.2° (Epoch: 13 March)

Event Time Altitude Azimuth Distance (km) Brightness Sun altitude
Rises 23:32:53 0° 292° (WNW) 2,742 - -65.0°
Reaches altitude 10° 23:35:40 10° 273° (W) 1,850 - -65.3°
Maximum altitude 23:38:35 18° 230° (SW) 1,405 - -65.7°
Drops below altitude 10° 23:41:30 10° 186° (S) 1,858 - -66.1°
Sets 23:44:20 0° 167° (SSE) 2,760 - -66.4°
